sat.trackr.live / text

‹ back to catalog

ONEWEB-0008

NORAD 44059 · 2019-010C

PAYLOAD ACTIVE UNKNOWN

§ Identity

Operator
Country
UK
Launch date
2019-02-27
Launch site
FRGUI
Launch vehicle
Mass (kg)
RCS (m²)

Purposes: comms

External: N2YO · Heavens-Above · Gunter

§ Orbital elements

Epoch: 2026-09-19T07:29:24.064512Z

Period
109.37 min
Inclination
87.9155°
Eccentricity
0.0001915
Mean motion
13.16593807 rev/d
Perigee alt
1,196.3 km
Apogee alt
1,199.2 km
Semi-major
7,575.9 km
B*
3.8128e-4
RAAN
210.0887°
Arg perigee
88.8092°
Mean anomaly
271.3258°
Rev number
36,411

§ Raw data

ONEWEB-00081 44059U 19010C   26262.31208408  .00000159  00000+0  38128-3 0  99962 44059  87.9155 210.0887 0001915  88.8092 271.3258 13.16593807364112

JSON: /api/v1/satellites/44059 · /tle

For live sub-satellite position, see the globe view (requires WebGL).

§ Visibility from observer

Set your observer location to see the next 7 days of passes ≥ 10°. The values pass through the URL so the page stays shareable.

No JS? Fill the form by hand. The geolocation button needs JavaScript.